User: anonymous   Login
Location: Unspecified
(0.0000°N, 0.0000°E)
Time: 20:19:33
(UTC+00:00)
Language:

TAURUS-1 - Orbit

View from above orbital plane
View from above orbital plane
View from above satellite
View from above satellite

Ground track
Ground track

The orbit is defined by the following mean orbital elements,

1 44530U          26145.60657744 +.00000000 +00000-0 +78375-3 0 00009
2 44530  98.6403 309.0406 0008618  31.7317 328.4406 14.71808800    09
Epoch (UTC): 25 May 2026 14:33:28
Eccentricity: 0.0008618
inclination: 98.6403°
perigee height: 649 km
apogee height: 661 km
right ascension of ascending node: 309.0406°
argument of perigee: 31.7317°
revolutions per day: 14.71808800
mean anomaly at epoch: 328.4406°

The dashed part of the orbit path shows where the satellite is in the earth's shadow,  

DLR